When you browse on this site, cookies collect data to enhance your experience and personalize the content and advertising you see.
Visit our Privacy Policy to learn more. By continuing to use the site, you agree to this use of cookies and data.
  • In Austria
  • List of Countries
  • For 7 days
  • Water Temperature
  • Weather Map
  • News
  • Weather Widgets
  • user-avatar
    Login

    Hourly Weather Popayan

    Today, 19 January, Sunday

    Time Temperature Precipitation Wind Pressure Humidity
    00:00 +19°C° 0 mm 1 mps 618 mmHg 87%
    01:00 +19°C° 0 mm 1 mps 618 mmHg 88%
    02:00 +19°C° 0 mm 1 mps 617 mmHg 88%
    03:00 +18°C° 0 mm 1 mps 617 mmHg 88%
    04:00 +18°C° 0 mm 1 mps 617 mmHg 88%
    05:00 +19°C° 0 mm 1 mps 617 mmHg 87%
    06:00 +19°C° 0 mm 1 mps 617 mmHg 87%
    07:00 +19°C° 0 mm 1 mps 618 mmHg 86%
    08:00 +21°C° 0 mm 1 mps 619 mmHg 77%
    09:00 +24°C° 0 mm 1 mps 620 mmHg 68%
    10:00 +26°C° 0 mm 1 mps 621 mmHg 59%
    11:00 +27°C° 0.1 mm 1 mps 621 mmHg 56%
    12:00 +28°C° 0.1 mm 1 mps 621 mmHg 53%
    13:00 +29°C° 0.1 mm 2 mps 621 mmHg 50%
    14:00 +27°C° 0.6 mm 2 mps 619 mmHg 60%
    15:00 +26°C° 0.6 mm 1 mps 618 mmHg 70%
    16:00 +24°C° 0.6 mm 1 mps 617 mmHg 80%
    17:00 +23°C° 0.7 mm 1 mps 617 mmHg 85%
    18:00 +21°C° 0.7 mm 1 mps 617 mmHg 90%
    19:00 +20°C° 0.7 mm 1 mps 617 mmHg 95%
    20:00 +19°C° 0.4 mm 1 mps 618 mmHg 94%
    21:00 +19°C° 0.4 mm 1 mps 618 mmHg 94%
    22:00 +19°C° 0.4 mm 1 mps 618 mmHg 94%
    23:00 +18°C° 0.3 mm 1 mps 618 mmHg 94%

    Tomorrow, 20 January, Monday

    Time Temperature Precipitation Wind Pressure Humidity
    00:00 +18°C° 0.3 mm 1 mps 618 mmHg 94%
    01:00 +18°C° 0.3 mm 1 mps 618 mmHg 94%
    02:00 +18°C° 0.1 mm 1 mps 617 mmHg 94%
    03:00 +18°C° 0.1 mm 1 mps 617 mmHg 94%
    04:00 +16°C° 0.1 mm 1 mps 616 mmHg 94%
    05:00 +18°C° 0 mm 1 mps 617 mmHg 93%
    06:00 +18°C° 0 mm 1 mps 618 mmHg 92%
    07:00 +18°C° 0 mm 1 mps 618 mmHg 91%
    08:00 +20°C° 0.2 mm 1 mps 619 mmHg 86%
    09:00 +22°C° 0.2 mm 1 mps 620 mmHg 81%
    10:00 +24°C° 0.2 mm 1 mps 621 mmHg 76%
    11:00 +24°C° 1.6 mm 1 mps 621 mmHg 79%
    12:00 +24°C° 1.6 mm 1 mps 620 mmHg 82%
    13:00 +24°C° 1.6 mm 1 mps 619 mmHg 86%
    14:00 +23°C° 1.9 mm 1 mps 619 mmHg 88%
    15:00 +23°C° 1.9 mm 1 mps 618 mmHg 90%
    16:00 +20°C° 1.9 mm 0 mps 617 mmHg 92%
    17:00 +19°C° 1 mm 0 mps 617 mmHg 94%
    18:00 +19°C° 1 mm 0 mps 617 mmHg 95%
    19:00 +18°C° 1 mm 0 mps 618 mmHg 97%
    20:00 +18°C° 1 mm 0 mps 618 mmHg 97%
    21:00 +17°C° 1 mm 0 mps 618 mmHg 97%
    22:00 +17°C° 1 mm 0 mps 619 mmHg 97%
    23:00 +17°C° 1.3 mm 0 mps 619 mmHg 98%

    Day after tomorrow, 21 January, Tuesday

    Time Temperature Precipitation Wind Pressure Humidity
    00:00 +17°C° 1.3 mm 0 mps 618 mmHg 98%
    01:00 +17°C° 1.3 mm 0 mps 618 mmHg 98%
    02:00 +17°C° 1.5 mm 0 mps 618 mmHg 98%
    03:00 +17°C° 1.5 mm 0 mps 617 mmHg 99%
    04:00 +17°C° 1.5 mm 0 mps 617 mmHg 99%
    05:00 +17°C° 2.9 mm 0 mps 617 mmHg 99%
    06:00 +16°C° 2.9 mm 0 mps 618 mmHg 99%
    07:00 +16°C° 2.9 mm 0 mps 618 mmHg 99%
    08:00 +17°C° 1.7 mm 0 mps 618 mmHg 98%
    09:00 +17°C° 1.7 mm 0 mps 619 mmHg 98%
    10:00 +17°C° 1.7 mm 0 mps 619 mmHg 97%
    11:00 +17°C° 1.3 mm 0 mps 619 mmHg 97%
    12:00 +19°C° 1.3 mm 1 mps 619 mmHg 97%
    13:00 +19°C° 1.3 mm 1 mps 618 mmHg 97%
    14:00 +19°C° 1.8 mm 1 mps 618 mmHg 97%
    15:00 +17°C° 1.8 mm 0 mps 617 mmHg 97%
    16:00 +17°C° 1.8 mm 0 mps 617 mmHg 97%
    17:00 +17°C° 0.4 mm 0 mps 617 mmHg 97%
    18:00 +16°C° 0.4 mm 0 mps 617 mmHg 98%
    19:00 +16°C° 0.4 mm 0 mps 617 mmHg 98%
    20:00 +16°C° 0.3 mm 0 mps 618 mmHg 98%
    21:00 +16°C° 0.3 mm 0 mps 618 mmHg 97%
    22:00 +16°C° 0.3 mm 0 mps 619 mmHg 97%
    23:00 +15°C° 0.1 mm 0 mps 618 mmHg 97%

    22 January, Wednesday

    Time Temperature Precipitation Wind Pressure Humidity
    00:00 +15°C° 0.1 mm 0 mps 618 mmHg 97%
    01:00 +15°C° 0.1 mm 0 mps 618 mmHg 97%
    02:00 +15°C° 0.1 mm 0 mps 617 mmHg 97%
    03:00 +15°C° 0.1 mm 0 mps 617 mmHg 97%
    04:00 +15°C° 0.1 mm 0 mps 617 mmHg 97%
    05:00 +15°C° 0.1 mm 0 mps 617 mmHg 97%
    06:00 +15°C° 0.1 mm 0 mps 617 mmHg 96%
    07:00 +15°C° 0.1 mm 0 mps 618 mmHg 95%
    08:00 +16°C° 0.3 mm 0 mps 618 mmHg 94%
    09:00 +19°C° 0.3 mm 1 mps 619 mmHg 92%
    10:00 +20°C° 0.3 mm 1 mps 619 mmHg 91%
    11:00 +21°C° 0.4 mm 1 mps 619 mmHg 86%
    12:00 +22°C° 0.4 mm 1 mps 619 mmHg 81%
    13:00 +23°C° 0.4 mm 1 mps 619 mmHg 76%
    14:00 +23°C° 0.6 mm 1 mps 618 mmHg 79%
    15:00 +22°C° 0.6 mm 1 mps 618 mmHg 83%
    16:00 +22°C° 0.6 mm 1 mps 617 mmHg 86%
    17:00 +21°C° 0.6 mm 1 mps 617 mmHg 90%
    18:00 +20°C° 0.6 mm 1 mps 617 mmHg 94%
    19:00 +17°C° 0.6 mm 0 mps 617 mmHg 98%
    20:00 +16°C° 0.1 mm 0 mps 617 mmHg 98%
    21:00 +16°C° 0.1 mm 0 mps 618 mmHg 97%
    22:00 +16°C° 0.1 mm 0 mps 618 mmHg 97%
    23:00 +16°C° 0.1 mm 0 mps 618 mmHg 97%

    23 January, Thursday

    Time Temperature Precipitation Wind Pressure Humidity
    00:00 +16°C° 0.1 mm 0 mps 618 mmHg 97%
    01:00 +16°C° 0.1 mm 0 mps 617 mmHg 97%
    02:00 +15°C° 0.1 mm 0 mps 617 mmHg 97%
    03:00 +15°C° 0.1 mm 0 mps 617 mmHg 97%
    04:00 +15°C° 0.1 mm 0 mps 616 mmHg 96%
    05:00 +15°C° 0 mm 0 mps 617 mmHg 96%
    06:00 +15°C° 0 mm 0 mps 617 mmHg 96%
    07:00 +15°C° 0 mm 0 mps 618 mmHg 95%
    08:00 +17°C° 0.1 mm 0 mps 619 mmHg 88%
    09:00 +21°C° 0.1 mm 1 mps 620 mmHg 81%
    10:00 +23°C° 0.1 mm 1 mps 621 mmHg 74%
    11:00 +24°C° 0.6 mm 1 mps 620 mmHg 76%
    12:00 +24°C° 0.6 mm 1 mps 620 mmHg 78%
    13:00 +24°C° 0.6 mm 2 mps 619 mmHg 80%
    14:00 +23°C° 1.6 mm 1 mps 618 mmHg 83%
    15:00 +23°C° 1.6 mm 1 mps 617 mmHg 86%
    16:00 +22°C° 1.6 mm 1 mps 617 mmHg 89%
    17:00 +21°C° 1 mm 1 mps 617 mmHg 92%
    18:00 +18°C° 1 mm 0 mps 617 mmHg 95%
    19:00 +17°C° 1 mm 0 mps 617 mmHg 97%
    20:00 +17°C° 0.4 mm 0 mps 617 mmHg 97%
    21:00 +16°C° 0.4 mm 0 mps 618 mmHg 97%
    22:00 +16°C° 0.4 mm 0 mps 618 mmHg 97%
    23:00 +16°C° 0.2 mm 0 mps 618 mmHg 97%

    24 January, Friday

    Time Temperature Precipitation Wind Pressure Humidity
    00:00 +16°C° 0.2 mm 0 mps 617 mmHg 97%
    01:00 +16°C° 0.2 mm 0 mps 617 mmHg 98%
    02:00 +16°C° 0.3 mm 0 mps 617 mmHg 98%
    03:00 +16°C° 0.3 mm 0 mps 617 mmHg 97%
    04:00 +16°C° 0.3 mm 0 mps 616 mmHg 97%
    05:00 +16°C° 0.1 mm 0 mps 617 mmHg 97%
    06:00 +16°C° 0.1 mm 0 mps 617 mmHg 96%
    07:00 +16°C° 0.1 mm 0 mps 618 mmHg 96%
    08:00 +18°C° 0.1 mm 0 mps 619 mmHg 91%
    09:00 +19°C° 0.1 mm 0 mps 620 mmHg 86%
    10:00 +23°C° 0.1 mm 1 mps 620 mmHg 81%
    11:00 +23°C° 0.7 mm 1 mps 620 mmHg 82%
    12:00 +23°C° 0.7 mm 1 mps 619 mmHg 84%
    13:00 +23°C° 0.7 mm 1 mps 619 mmHg 86%
    14:00 +23°C° 1.5 mm 1 mps 618 mmHg 87%
    15:00 +23°C° 1.5 mm 1 mps 618 mmHg 89%
    16:00 +22°C° 1.5 mm 1 mps 617 mmHg 91%
    17:00 +21°C° 1 mm 1 mps 617 mmHg 93%
    18:00 +18°C° 1 mm 0 mps 617 mmHg 95%
    19:00 +17°C° 1 mm 0 mps 617 mmHg 98%
    20:00 +17°C° 0.3 mm 0 mps 618 mmHg 97%
    21:00 +17°C° 0.3 mm 0 mps 618 mmHg 97%
    22:00 +16°C° 0.3 mm 0 mps 618 mmHg 97%
    23:00 +16°C° 0.2 mm 0 mps 618 mmHg 97%
    Show more